Time,TemperatureF,DewpointF,PressureIn,WindDirection,WindDirectionDegrees,WindSpeedMPH,WindSpeedGustMPH,Humidity,HourlyPrecipIn,Conditions,Clouds,dailyrainin,SolarRadiationWatts/m^2,SoftwareType,DateUTC
2013-06-17 00:22:00,52.0,50.0,30.08,WSW,241,18.0,-999.0,92,-99.99,,,-99.99,0.000000,,2013-06-17 07:22:00,
2013-06-17 00:33:00,52.0,50.0,30.08,WSW,241,18.0,-999.0,92,-99.99,,,-99.99,0.000000,,2013-06-17 07:33:00,
2013-06-17 00:43:00,52.0,50.0,30.08,WSW,241,18.0,-999.0,92,-99.99,,,-99.99,0.000000,,2013-06-17 07:43:00,
2013-06-17 00:53:00,52.0,50.0,30.08,WSW,241,18.0,-999.0,92,-99.99,,,-99.99,0.000000,,2013-06-17 07:53:00,
2013-06-17 01:01:00,52.0,50.0,30.08,WSW,241,18.0,-999.0,92,-99.99,,,-99.99,0.000000,,2013-06-17 08:01:00,
2013-06-17 02:22:00,52.0,50.0,30.07,WSW,252,13.0,-999.0,94,-99.99,,,-99.99,0.000000,,2013-06-17 09:22:00,
2013-06-17 02:34:00,52.0,50.0,30.07,WSW,252,13.0,-999.0,94,-99.99,,,-99.99,0.000000,,2013-06-17 09:34:00,
2013-06-17 02:44:00,52.0,50.0,30.07,WSW,252,13.0,-999.0,94,-99.99,,,-99.99,0.000000,,2013-06-17 09:44:00,
2013-06-17 02:52:00,52.0,50.0,30.07,WSW,252,13.0,-999.0,94,-99.99,,,-99.99,0.000000,,2013-06-17 09:52:00,
2013-06-17 03:02:00,52.0,50.0,30.07,WSW,252,13.0,-999.0,94,-99.99,,,-99.99,0.000000,,2013-06-17 10:02:00,
2013-06-17 04:23:00,51.0,50.0,30.06,West,263,15.0,-999.0,95,-99.99,,,-99.99,0.000000,,2013-06-17 11:23:00,
2013-06-17 04:33:00,51.0,50.0,30.06,West,263,15.0,-999.0,95,-99.99,,,-99.99,0.000000,,2013-06-17 11:33:00,
2013-06-17 04:43:00,51.0,50.0,30.06,West,263,15.0,-999.0,95,-99.99,,,-99.99,0.000000,,2013-06-17 11:43:00,
2013-06-17 04:53:00,51.0,50.0,30.06,West,263,15.0,-999.0,95,-99.99,,,-99.99,0.000000,,2013-06-17 11:53:00,
2013-06-17 05:02:00,51.0,50.0,30.06,West,263,15.0,-999.0,95,-99.99,,,-99.99,0.000000,,2013-06-17 12:02:00,
2013-06-17 06:22:00,50.0,49.0,30.06,WSW,253,18.0,-999.0,96,-99.99,,,-99.99,9.000000,,2013-06-17 13:22:00,
2013-06-17 06:32:00,50.0,49.0,30.06,WSW,253,18.0,-999.0,96,-99.99,,,-99.99,9.000000,,2013-06-17 13:32:00,
2013-06-17 06:43:00,50.0,49.0,30.06,WSW,253,18.0,-999.0,96,-99.99,,,-99.99,9.000000,,2013-06-17 13:43:00,
2013-06-17 06:52:00,50.0,49.0,30.06,WSW,253,18.0,-999.0,96,-99.99,,,-99.99,9.000000,,2013-06-17 13:52:00,
2013-06-17 07:02:00,50.0,49.0,30.06,WSW,253,18.0,-999.0,96,-99.99,,,-99.99,9.000000,,2013-06-17 14:02:00,
2013-06-17 08:22:00,51.0,50.0,30.07,WSW,257,14.0,-999.0,96,-99.99,,,-99.99,269.000000,,2013-06-17 15:22:00,
2013-06-17 08:33:00,51.0,50.0,30.07,WSW,257,14.0,-999.0,96,-99.99,,,-99.99,269.000000,,2013-06-17 15:33:00,
2013-06-17 08:43:00,51.0,50.0,30.07,WSW,257,14.0,-999.0,96,-99.99,,,-99.99,269.000000,,2013-06-17 15:43:00,
2013-06-17 08:52:00,51.0,50.0,30.07,WSW,257,14.0,-999.0,96,-99.99,,,-99.99,269.000000,,2013-06-17 15:52:00,
2013-06-17 09:01:00,51.0,50.0,30.07,WSW,257,14.0,-999.0,96,-99.99,,,-99.99,269.000000,,2013-06-17 16:01:00,
2013-06-17 10:22:00,55.0,53.0,30.08,South,188,13.0,-999.0,92,-99.99,,,-99.99,805.000000,,2013-06-17 17:22:00,
2013-06-17 10:33:00,55.0,53.0,30.08,South,188,13.0,-999.0,92,-99.99,,,-99.99,805.000000,,2013-06-17 17:33:00,
2013-06-17 10:43:00,55.0,53.0,30.08,South,188,13.0,-999.0,92,-99.99,,,-99.99,805.000000,,2013-06-17 17:43:00,
2013-06-17 10:52:00,55.0,53.0,30.08,South,188,13.0,-999.0,92,-99.99,,,-99.99,805.000000,,2013-06-17 17:52:00,
2013-06-17 11:01:00,55.0,53.0,30.08,South,188,13.0,-999.0,92,-99.99,,,-99.99,805.000000,,2013-06-17 18:01:00,
2013-06-17 12:22:00,58.0,55.0,30.10,SSW,203,15.0,-999.0,89,-99.99,,,-99.99,993.000000,,2013-06-17 19:22:00,
2013-06-17 12:33:00,58.0,55.0,30.10,SSW,203,15.0,-999.0,89,-99.99,,,-99.99,993.000000,,2013-06-17 19:33:00,
2013-06-17 12:43:00,58.0,55.0,30.10,SSW,203,15.0,-999.0,89,-99.99,,,-99.99,993.000000,,2013-06-17 19:43:00,
2013-06-17 12:53:00,58.0,55.0,30.10,SSW,203,15.0,-999.0,89,-99.99,,,-99.99,993.000000,,2013-06-17 19:53:00,
2013-06-17 13:01:00,58.0,55.0,30.10,SSW,203,15.0,-999.0,89,-99.99,,,-99.99,993.000000,,2013-06-17 20:01:00,
2013-06-17 14:22:00,59.0,55.0,30.09,West,259,17.0,-999.0,86,-99.99,,,-99.99,1021.000000,,2013-06-17 21:22:00,
2013-06-17 14:33:00,59.0,55.0,30.09,West,259,17.0,-999.0,86,-99.99,,,-99.99,1021.000000,,2013-06-17 21:33:00,
2013-06-17 14:43:00,59.0,55.0,30.09,West,259,17.0,-999.0,86,-99.99,,,-99.99,1021.000000,,2013-06-17 21:43:00,
2013-06-17 14:52:00,59.0,55.0,30.09,West,259,17.0,-999.0,86,-99.99,,,-99.99,1021.000000,,2013-06-17 21:52:00,
2013-06-17 15:01:00,59.0,55.0,30.09,West,259,17.0,-999.0,86,-99.99,,,-99.99,1021.000000,,2013-06-17 22:01:00,
2013-06-17 16:22:00,58.0,55.0,30.08,WNW,284,13.0,-999.0,90,-99.99,,,-99.99,508.000000,,2013-06-17 23:22:00,
2013-06-17 16:33:00,58.0,55.0,30.08,WNW,284,13.0,-999.0,90,-99.99,,,-99.99,508.000000,,2013-06-17 23:33:00,
2013-06-17 16:43:00,58.0,55.0,30.08,WNW,284,13.0,-999.0,90,-99.99,,,-99.99,508.000000,,2013-06-17 23:43:00,
2013-06-17 16:53:00,58.0,55.0,30.08,WNW,284,13.0,-999.0,90,-99.99,,,-99.99,508.000000,,2013-06-17 23:53:00,
2013-06-17 17:01:00,58.0,55.0,30.08,WNW,284,13.0,-999.0,90,-99.99,,,-99.99,508.000000,,2013-06-18 00:01:00,
2013-06-17 18:23:00,56.0,54.0,30.05,West,272,15.0,-999.0,92,-99.99,,,-99.99,165.000000,,2013-06-18 01:23:00,
2013-06-17 18:34:00,56.0,54.0,30.05,West,272,15.0,-999.0,92,-99.99,,,-99.99,165.000000,,2013-06-18 01:34:00,
2013-06-17 18:44:00,56.0,54.0,30.05,West,272,15.0,-999.0,92,-99.99,,,-99.99,165.000000,,2013-06-18 01:44:00,
2013-06-17 18:53:00,56.0,54.0,30.05,West,272,15.0,-999.0,92,-99.99,,,-99.99,165.000000,,2013-06-18 01:53:00,
2013-06-17 19:02:00,56.0,54.0,30.05,West,272,15.0,-999.0,92,-99.99,,,-99.99,165.000000,,2013-06-18 02:02:00,
2013-06-17 20:23:00,55.0,53.0,30.03,SW,236,16.0,-999.0,93,-99.99,,,-99.99,12.000000,,2013-06-18 03:23:00,
2013-06-17 20:34:00,55.0,53.0,30.03,SW,236,16.0,-999.0,93,-99.99,,,-99.99,12.000000,,2013-06-18 03:34:00,
2013-06-17 20:43:00,55.0,53.0,30.03,SW,236,16.0,-999.0,93,-99.99,,,-99.99,12.000000,,2013-06-18 03:43:00,
2013-06-17 20:53:00,55.0,53.0,30.03,SW,236,16.0,-999.0,93,-99.99,,,-99.99,12.000000,,2013-06-18 03:53:00,
2013-06-17 21:01:00,55.0,53.0,30.03,SW,236,16.0,-999.0,93,-99.99,,,-99.99,12.000000,,2013-06-18 04:01:00,
2013-06-17 22:22:00,54.0,52.0,30.04,West,267,17.0,-999.0,94,-99.99,,,-99.99,0.000000,,2013-06-18 05:22:00,
2013-06-17 22:34:00,54.0,52.0,30.04,West,267,17.0,-999.0,94,-99.99,,,-99.99,0.000000,,2013-06-18 05:34:00,
2013-06-17 22:43:00,54.0,52.0,30.04,West,267,17.0,-999.0,94,-99.99,,,-99.99,0.000000,,2013-06-18 05:43:00,
2013-06-17 22:53:00,54.0,52.0,30.04,West,267,17.0,-999.0,94,-99.99,,,-99.99,0.000000,,2013-06-18 05:53:00,
2013-06-17 23:02:00,54.0,52.0,30.04,West,267,17.0,-999.0,94,-99.99,,,-99.99,0.000000,,2013-06-18 06:02:00,